Pine Ridge, SD

3:56 AM MDT on March 30, 2017 (GMT -0600)
Pine Ridge

Weather History for KIEN - October, 2011

Change the Weather History Date:

Monday, October 31, 2011

  Actual Average Record
Temperature  
Mean Temperature 46 °F 42 °F  
Max Temperature 70 °F 57 °F 86 °F (1999)
Min Temperature 21 °F 27 °F 5 °F (2002)
Degree Days  
Heating Degree Days 19 23  
Month to date heating degree days 494 532  
Since 1 July heating degree days 674 755  
Cooling Degree Days 0 0  
Month to date cooling degree days 32 3  
Year to date cooling degree days 818 717  
Moisture  
Dew Point 26 °F    
Average Humidity 54    
Maximum Humidity 88    
Minimum Humidity 20    
Precipitation  
Precipitation 0.00 in 0.03 in 0.61 in (2000)
Month to date precipitation 0.95 1.20  
Year to date precipitation 17.51 16.60  
Sea Level Pressure  
Sea Level Pressure 29.91 in    
Wind  
Wind Speed 7 mph (WNW)    
Max Wind Speed 32 mph    
Max Gust Speed 44 mph    
Visibility 10 miles    
Events      
T = Trace of Precipitation, MM = Missing Value Source: NWS Daily Summary

Daily Weather History Graph

Daily Weather History Graph

Search for Another Location

Airport or City:

Trip Planner

Search our weather history database for the weather conditions in past years. The results will help you decide how hot, cold, wet, or windy it might be!

Date:

Astronomy

Oct. 31, 2011 Rise Set
Actual Time 7:23 AM MDT 5:43 PM MDT
Civil Twilight 6:53 AM MDT 6:13 PM MDT
Nautical Twilight 6:20 AM MDT 6:46 PM MDT
Astronomical Twilight 5:47 AM MDT 7:19 PM MDT
Moon 12:35 PM MDT (10/31) 10:19 PM MDT (10/31)
Length of Visible Light 11h 19m
Length of Day
10h 20m
Waxing Crescent, 30% of the Moon is Illuminated
Oct 31
Waxing Crescent
Nov 2
First Quarter
Nov 10
Full
Nov 18
Last Quarter
Nov 24
New

Hourly Weather History & Observations

Time (MDT) Temp. Windchill Dew Point Humidity Pressure Visibility Wind Dir Wind Speed Gust Speed Precip Events Conditions
12:52 AM 23.0 °F 18.4 °F 19.0 °F 85% 30.06 in 10.0 mi ENE 3.5 mph - N/A   Clear
2:52 AM 25.0 °F - 19.0 °F 78% 30.01 in 10.0 mi Calm Calm - N/A   Clear
3:52 AM 34.0 °F 28.8 °F 21.9 °F 61% 29.97 in 10.0 mi West 5.8 mph - N/A   Clear
4:52 AM 34.0 °F 31.0 °F 21.9 °F 61% 29.96 in 10.0 mi West 3.5 mph - N/A   Clear
5:52 AM 28.9 °F 25.2 °F 21.0 °F 72% 29.98 in 10.0 mi WSW 3.5 mph - N/A   Clear
6:52 AM 30.9 °F 27.5 °F 23.0 °F 72% 29.99 in 10.0 mi West 3.5 mph - N/A   Clear
7:52 AM 28.9 °F 25.2 °F 21.9 °F 75% 30.01 in 10.0 mi WNW 3.5 mph - N/A   Clear
8:52 AM 36.0 °F - 25.0 °F 64% 30.00 in 10.0 mi Calm Calm - N/A   Clear
9:52 AM 52.0 °F - 30.0 °F 43% 29.96 in 10.0 mi Variable 3.5 mph - N/A   Clear
10:52 AM 60.1 °F - 27.0 °F 28% 29.94 in 10.0 mi West 10.4 mph - N/A   Clear
11:52 AM 63.0 °F - 28.0 °F 27% 29.91 in 10.0 mi West 9.2 mph - N/A   Clear
12:52 PM 64.9 °F - 26.1 °F 23% 29.87 in 10.0 mi West 11.5 mph 18.4 mph N/A   Clear
1:52 PM 66.9 °F - 26.1 °F 21% 29.83 in 10.0 mi West 12.7 mph 18.4 mph N/A   Clear
2:52 PM 69.1 °F - 26.1 °F 20% 29.81 in 10.0 mi West 12.7 mph - N/A   Clear
3:52 PM 69.1 °F - 27.0 °F 21% 29.77 in 10.0 mi WNW 10.4 mph - N/A   Clear
4:52 PM 66.9 °F - 28.0 °F 23% 29.77 in 10.0 mi NW 3.5 mph - N/A   Clear
5:52 PM 55.9 °F - 28.0 °F 34% 29.82 in 10.0 mi Calm Calm - N/A   Clear
6:52 PM 46.0 °F 43.9 °F 28.9 °F 51% 29.84 in 9.0 mi ENE 4.6 mph - N/A   Clear
7:52 PM 43.0 °F 41.3 °F 28.0 °F 56% 29.86 in 10.0 mi ENE 3.5 mph - N/A   Clear
8:52 PM 42.1 °F - 28.9 °F 60% 29.84 in 9.0 mi Calm Calm - N/A   Clear
9:52 PM 45.0 °F - 30.0 °F 56% 29.83 in 10.0 mi Calm Calm - N/A   Clear
11:52 PM 46.9 °F - 33.1 °F 59% 29.90 in 10.0 mi North 17.3 mph 34.5 mph N/A   Clear